Home   Weather   Andorra La Vella   Past weeks

Flag for Andorra Past Weather in Andorra La Vella, Andorra — Yesterday and Last 2 Weeks

Now
39 °F

Sunny.


Feels Like: 39 °F
Forecast: 37 / 60 °F
Wind: 2 mph from North

Location: Carcassonne Airport

Current Time: Apr 23, 2017 at 7:34:55 am

Latest Report: Apr 23, 2017 at 7:00 am


Visibility: 10 mi

Pressure: 30.09 "Hg (26.50 "Hg at 1031m altitude)

Humidity: 93%

Dew Point: 37 °F

Location of Andorra La VellaLocation

Past Weather in Andorra La Vella — Graph

°F

Andorra La Vella Temperature Yesterday

Maximum temperature yesterday: 73 °F (at 3:30 pm)
Minimum temperature yesterday: 39 °F (at 6:30 am)
Average temperature yesterday: 57 °F

High & Low Weather Summary for the Past Weeks

 TemperatureHumidityPressure
High79 °F (Apr 10, 3:30 pm)100% (Apr 8, 8:00 am)30.36 "Hg (Apr 8, 8:00 am)
Low34 °F (Apr 21, 6:00 am)17% (Apr 20, 6:30 pm)29.98 "Hg (Apr 13, 4:00 pm)
Average58 °F59%30.17 "Hg
* Reported Apr 8 6:00 am — Apr 23 6:30 am, Andorra La Vella, Weather by CustomWeather, © 2017

Note: Actual official high and low records may vary slightly from our data, if they occured in-between our weather recording intervals... More about our weather records

Advertising

Andorra La Vella Weather History for the Previous 24 Hours

Scroll right to see more
 ConditionsComfort  
Time TempWeatherWind HumidityBarometerVisibility
6:30 am
Sun, Apr 23
39 °FClear.No wind93%30.09 "Hg10 mi
6:00 am39 °FClear.No wind93%30.09 "Hg10 mi
5:30 am39 °FClear.No wind93%30.09 "Hg10 mi
4:30 am43 °FClear.1 mph81%30.09 "Hg10 mi
4:00 am43 °FClear.3 mph87%30.09 "Hg10 mi
3:30 am41 °FClear.No wind93%30.09 "Hg10 mi
3:00 am41 °FClear.No wind93%30.09 "Hg10 mi
2:30 am43 °FClear.1 mph87%30.09 "Hg10 mi
2:00 am43 °FClear.No wind87%30.09 "Hg10 mi
1:30 am43 °FClear.3 mph87%30.09 "Hg10 mi
1:00 am46 °FClear.No wind76%30.09 "Hg10 mi
12:30 am46 °FClear.2 mph76%30.09 "Hg10 mi
12:00 am50 °FPassing clouds.3 mph71%30.09 "HgN/A
11:30 pm
Sat, Apr 22
50 °FClear.2 mph71%30.09 "Hg10 mi
11:00 pm50 °FClear.2 mph71%30.09 "Hg10 mi
10:30 pm52 °FClear.No wind62%30.09 "Hg10 mi
10:00 pm54 °FClear.No wind58%30.09 "Hg10 mi
9:30 pm57 °FClear.No wind51%30.09 "Hg10 mi
8:30 pm64 °FSunny.3 mph40%30.07 "Hg10 mi
8:00 pm68 °FSunny.7 mph35%30.09 "Hg10 mi
7:30 pm70 °FPassing clouds.8 mph33%30.09 "HgN/A
7:00 pm72 °FSunny.9 mph31%30.09 "Hg10 mi
6:30 pm72 °FSunny.12 mph31%30.09 "Hg10 mi
6:00 pm73 °FSunny.10 mph27%30.09 "Hg10 mi
5:30 pm73 °FSunny.12 mph25%30.09 "Hg10 mi
5:00 pm73 °FPassing clouds.12 mph27%30.12 "HgN/A
4:30 pm73 °FPassing clouds.10 mph31%30.12 "HgN/A
4:00 pm73 °FPassing clouds.10 mph31%30.12 "HgN/A
3:30 pm73 °FSunny.12 mph33%30.15 "Hg10 mi
3:00 pm72 °FPassing clouds.12 mph33%30.15 "HgN/A
2:30 pm70 °FPassing clouds.13 mph35%30.18 "HgN/A
2:00 pm70 °FPassing clouds.12 mph35%30.18 "HgN/A
1:30 pm68 °FSunny.13 mph40%30.21 "Hg10 mi
1:00 pm66 °FPassing clouds.12 mph43%30.21 "HgN/A
12:30 pm66 °FPassing clouds.12 mph46%30.24 "HgN/A
12:00 pm64 °FSunny.14 mph49%30.24 "Hg10 mi
11:30 am63 °FSunny.13 mph49%30.27 "Hg10 mi
11:00 am61 °FSunny.14 mph52%30.27 "Hg10 mi
10:30 am59 °FSunny.13 mph55%30.27 "Hg10 mi
10:00 am55 °FSunny.12 mph72%30.27 "Hg10 mi
9:30 am54 °FPassing clouds.12 mph67%30.27 "HgN/A
9:00 am52 °FSunny.9 mph62%30.27 "Hg10 mi
8:30 am48 °FSunny.7 mph66%30.27 "Hg10 mi
8:00 am46 °FSunny.6 mph71%30.27 "Hg10 mi
7:30 am43 °FSunny.7 mph76%30.27 "Hg10 mi
7:00 am39 °FSunny.3 mph81%30.27 "Hg10 mi
Weather by CustomWeather, © 2017

See weather overviewHow to use our weather pages